TimeCST,TemperatureF,Dew PointF,Humidity,Sea Level PressureIn,VisibilityMPH,Wind Direction,Wind SpeedMPH,Gust SpeedMPH,PrecipitationIn,Events,Conditions,WindDirDegrees,DateUTC
12:10 AM,26.6,23.0,86,29.96,7.0,Calm,Calm,-,N/A,,Overcast,0,2012-12-20 06:10:00
12:53 AM,27.0,23.0,85,30.01,7.0,SSE,3.5,-,N/A,,Overcast,160,2012-12-20 06:53:00
1:53 AM,27.0,24.1,89,30.00,4.0,Calm,Calm,-,0.00,Snow,Light Snow,0,2012-12-20 07:53:00
2:09 AM,26.6,24.8,93,29.96,6.0,Calm,Calm,-,0.00,,Overcast,0,2012-12-20 08:09:00
2:53 AM,27.0,24.1,89,29.99,6.0,Calm,Calm,-,0.00,,Overcast,0,2012-12-20 08:53:00
3:37 AM,26.6,24.8,93,29.94,6.0,NW,4.6,-,N/A,,Overcast,320,2012-12-20 09:37:00
3:53 AM,27.0,24.1,89,29.98,5.0,Calm,Calm,-,0.00,Snow,Light Snow,0,2012-12-20 09:53:00
4:15 AM,28.4,24.8,86,29.93,3.0,Calm,Calm,-,0.00,Snow,Light Snow,0,2012-12-20 10:15:00
4:26 AM,28.4,24.8,86,29.93,2.5,North,4.6,-,0.00,Snow,Light Snow,350,2012-12-20 10:26:00
4:53 AM,28.0,25.0,88,29.96,2.5,NNW,3.5,-,0.00,Snow,Light Snow,340,2012-12-20 10:53:00
5:23 AM,26.6,24.8,93,29.91,1.8,NW,5.8,-,0.00,Snow,Light Snow,320,2012-12-20 11:23:00
5:53 AM,27.0,25.0,92,29.94,1.8,NNW,5.8,-,0.00,Snow,Light Snow,340,2012-12-20 11:53:00
6:53 AM,27.0,24.1,89,29.94,1.8,NNW,5.8,-,0.01,Snow,Light Snow,330,2012-12-20 12:53:00
7:39 AM,26.6,24.8,93,29.89,1.5,NNW,5.8,-,0.01,Snow,Light Snow,340,2012-12-20 13:39:00
7:53 AM,27.0,25.0,92,29.92,1.5,North,6.9,-,0.02,Snow,Light Snow,350,2012-12-20 13:53:00
8:09 AM,28.4,24.8,86,29.88,0.8,North,8.1,-,0.00,Snow,Light Snow,360,2012-12-20 14:09:00
8:53 AM,28.0,25.0,88,29.92,1.0,North,10.4,-,0.01,Snow,Light Snow,360,2012-12-20 14:53:00
9:36 AM,28.4,24.8,86,29.87,1.0,North,9.2,-,0.01,Snow,Light Snow,350,2012-12-20 15:36:00
9:44 AM,28.4,24.8,86,29.87,1.2,North,11.5,-,0.01,Snow,Light Snow,350,2012-12-20 15:44:00
9:53 AM,28.0,25.0,88,29.91,1.2,North,10.4,-,0.01,Snow,Light Snow,350,2012-12-20 15:53:00
10:53 AM,28.0,25.0,88,29.89,1.0,North,13.8,-,0.00,Snow,Light Snow,360,2012-12-20 16:53:00
11:09 AM,28.4,24.8,86,29.84,0.8,North,13.8,-,0.00,Snow,Light Snow,360,2012-12-20 17:09:00
11:37 AM,28.4,24.8,86,29.83,1.0,North,12.7,-,0.00,Snow,Light Snow,350,2012-12-20 17:37:00
11:51 AM,28.4,24.8,86,29.82,1.0,North,15.0,-,0.00,Snow,Light Snow,360,2012-12-20 17:51:00
11:53 AM,28.0,25.0,88,29.86,1.0,North,12.7,-,0.00,Snow,Light Snow,360,2012-12-20 17:53:00
12:09 PM,28.4,24.8,86,29.81,1.0,North,16.1,-,0.00,Snow,Light Snow,360,2012-12-20 18:09:00
12:53 PM,28.0,25.0,88,29.83,1.0,North,12.7,-,0.01,Snow,Light Snow,350,2012-12-20 18:53:00
1:26 PM,28.4,24.8,86,29.79,0.8,North,13.8,-,0.00,Snow,Light Snow,360,2012-12-20 19:26:00
1:47 PM,28.4,26.6,93,29.78,1.0,North,13.8,-,0.00,Snow,Light Snow,360,2012-12-20 19:47:00
1:48 PM,28.9,26.1,89,29.82,1.0,North,13.8,-,0.00,Snow,Light Snow,360,2012-12-20 19:48:00
1:56 PM,28.4,26.6,93,29.78,0.8,North,15.0,-,0.00,Snow,Light Snow,360,2012-12-20 19:56:00
2:08 PM,28.4,26.6,93,29.78,1.0,North,13.8,-,0.00,Snow,Light Snow,360,2012-12-20 20:08:00
2:53 PM,28.9,25.0,85,29.81,2.5,North,13.8,-,0.00,Snow,Light Snow,350,2012-12-20 20:53:00
3:02 PM,28.4,24.8,86,29.77,3.0,North,16.1,-,0.00,Snow,Light Snow,350,2012-12-20 21:02:00
3:44 PM,28.4,24.8,86,29.78,3.0,North,17.3,-,0.00,Snow,Light Snow,360,2012-12-20 21:44:00
3:53 PM,28.9,25.0,85,29.82,4.0,North,13.8,-,0.00,Snow,Light Snow,350,2012-12-20 21:53:00
4:09 PM,28.4,24.8,86,29.79,2.0,North,17.3,24.2,0.00,Snow,Light Snow,350,2012-12-20 22:09:00
4:20 PM,28.4,24.8,86,29.79,2.0,North,16.1,-,0.00,Snow,Light Snow,350,2012-12-20 22:20:00
4:36 PM,28.4,24.8,86,29.80,1.8,North,15.0,-,0.00,Snow,Light Snow,350,2012-12-20 22:36:00
4:53 PM,28.0,24.1,85,29.84,1.8,North,15.0,-,0.00,Snow,Light Snow,360,2012-12-20 22:53:00
5:03 PM,28.4,24.8,86,29.81,2.0,North,16.1,21.9,0.01,Snow,Light Snow,360,2012-12-20 23:03:00
5:46 PM,26.6,23.0,86,29.81,3.0,North,13.8,23.0,0.01,Snow,Light Snow,350,2012-12-20 23:46:00
5:53 PM,27.0,23.0,85,29.86,3.0,NNW,17.3,24.2,0.01,Snow,Light Snow,340,2012-12-20 23:53:00
6:10 PM,26.6,23.0,86,29.82,2.5,North,18.4,26.5,0.00,Snow,Light Snow,350,2012-12-21 00:10:00
6:23 PM,26.6,21.2,80,29.82,3.0,NNW,15.0,24.2,0.00,Snow,Light Snow,340,2012-12-21 00:23:00
6:53 PM,27.0,21.9,81,29.87,3.0,North,18.4,25.3,0.00,Snow,Light Snow,350,2012-12-21 00:53:00
7:13 PM,26.6,21.2,80,29.84,2.5,North,15.0,-,0.00,Snow,Light Snow,350,2012-12-21 01:13:00
7:45 PM,26.6,21.2,80,29.84,3.0,North,15.0,27.6,0.00,Snow,Light Snow,350,2012-12-21 01:45:00
7:53 PM,26.1,21.9,84,29.88,3.0,NNW,16.1,21.9,0.00,Snow,Light Snow,340,2012-12-21 01:53:00
8:40 PM,24.8,21.2,86,29.85,3.0,NNW,16.1,28.8,0.00,Snow,Light Snow,340,2012-12-21 02:40:00
8:53 PM,25.0,21.0,85,29.90,4.0,NNW,16.1,-,0.00,Snow,Light Snow,340,2012-12-21 02:53:00
9:51 PM,24.8,19.4,80,29.87,6.0,NNW,10.4,-,0.00,Snow,Light Snow,340,2012-12-21 03:51:00
9:53 PM,24.1,19.9,84,29.92,7.0,NNW,13.8,-,0.00,Snow,Light Snow,330,2012-12-21 03:53:00
10:12 PM,24.8,17.6,74,29.88,10.0,NNW,13.8,20.7,0.00,,Overcast,340,2012-12-21 04:12:00
10:22 PM,24.8,17.6,74,29.88,10.0,NNW,15.0,23.0,0.00,,Overcast,330,2012-12-21 04:22:00
10:53 PM,23.0,18.0,81,29.93,10.0,NW,11.5,18.4,0.00,,Overcast,320,2012-12-21 04:53:00
11:53 PM,21.9,16.0,78,29.94,10.0,NNW,13.8,-,N/A,,Overcast,330,2012-12-21 05:53:00